Charleston, WV

11:48 PM EDT on March 28, 2017 (GMT -0400)
Yeager Airport

Weather History for KCRW - February, 2014

Change the Weather History Date:

Thursday, February 27, 2014

  Actual Average Record
Temperature  
Mean Temperature 26 °F 40 °F  
Max Temperature 34 °F 50 °F 77 °F (1932)
Min Temperature 18 °F 31 °F 1 °F (1963)
Degree Days  
Heating Degree Days 39 25  
Month to date heating degree days 826 742  
Since 1 July heating degree days 3728 3430  
Cooling Degree Days 0 0  
Month to date cooling degree days 0 0  
Year to date cooling degree days 0 0  
Moisture  
Dew Point 5 °F    
Average Humidity 42    
Maximum Humidity 56    
Minimum Humidity 27    
Precipitation  
Precipitation 0.00 in 0.13 in 1.95 in (1962)
Month to date precipitation 4.56 3.07  
Year to date precipitation 7.06 6.07  
Snow  
Snow 0.00 in - - ()
Month to date snowfall 13.9  
Since 1 September snowfall 37.7  
Snow Depth 0.00 in    
Sea Level Pressure  
Sea Level Pressure 29.94 in    
Wind  
Wind Speed 13 mph (West)    
Max Wind Speed 29 mph    
Max Gust Speed 36 mph    
Visibility 10 miles    
Events      
T = Trace of Precipitation, MM = Missing Value Source: NWS Daily Summary

Daily Weather History Graph

Daily Weather History Graph

Search for Another Location

Airport or City:

Trip Planner

Search our weather history database for the weather conditions in past years. The results will help you decide how hot, cold, wet, or windy it might be!

Date:

Astronomy

Feb. 27, 2014 Rise Set
Actual Time 7:01 AM EST 6:17 PM EST
Civil Twilight 6:34 AM EST 6:44 PM EST
Nautical Twilight 6:03 AM EST 7:14 PM EST
Astronomical Twilight 5:33 AM EST 7:45 PM EST
Moon 5:31 AM EST (2/27) 4:42 PM EST (2/27)
Length of Visible Light 12h 09m
Length of Day
11h 16m
Waning Crescent, 4% of the Moon is Illuminated
Feb 27
Waning Crescent
Mar 1
New
Mar 8
First Quarter
Mar 16
Full
Mar 23
Last Quarter

Hourly Weather History & Observations

Time (EST) Temp. Windchill Dew Point Humidity Pressure Visibility Wind Dir Wind Speed Gust Speed Precip Events Conditions
12:54 AM 21.0 °F 12.4 °F 7.0 °F 55% 29.89 in 10.0 mi SW 6.9 mph - N/A   Clear
1:54 AM 21.0 °F 9.9 °F 7.0 °F 55% 29.88 in 10.0 mi WSW 10.4 mph - N/A   Clear
2:54 AM 21.0 °F 8.6 °F 7.0 °F 55% 29.86 in 10.0 mi WSW 12.7 mph - N/A   Clear
3:54 AM 19.9 °F 7.3 °F 6.1 °F 55% 29.85 in 10.0 mi WSW 12.7 mph 21.9 mph N/A   Clear
4:54 AM 19.9 °F 6.7 °F 5.0 °F 52% 29.85 in 10.0 mi WSW 13.8 mph - N/A   Clear
5:54 AM 19.9 °F 7.9 °F 3.9 °F 50% 29.85 in 10.0 mi WSW 11.5 mph 21.9 mph N/A   Clear
6:54 AM 19.9 °F 6.7 °F 3.9 °F 50% 29.86 in 10.0 mi SW 13.8 mph 24.2 mph N/A   Clear
7:54 AM 21.0 °F 8.1 °F 3.9 °F 48% 29.87 in 10.0 mi WSW 13.8 mph 21.9 mph N/A   Scattered Clouds
8:54 AM 23.0 °F 7.2 °F 5.0 °F 46% 29.88 in 10.0 mi WSW 23.0 mph 28.8 mph N/A   Scattered Clouds
9:54 AM 25.0 °F 11.3 °F 8.1 °F 49% 29.87 in 10.0 mi West 18.4 mph 33.4 mph N/A   Scattered Clouds
10:54 AM 28.0 °F 12.8 °F 8.1 °F 43% 29.88 in 10.0 mi WSW 27.6 mph 35.7 mph 0.00 in   Scattered Clouds
11:54 AM 28.0 °F 15.3 °F 8.1 °F 43% 29.91 in 10.0 mi West 18.4 mph 27.6 mph N/A   Scattered Clouds
12:54 PM 30.9 °F 20.2 °F 8.1 °F 38% 29.90 in 10.0 mi West 15.0 mph 28.8 mph N/A   Scattered Clouds
1:54 PM 32.0 °F 21.2 °F 9.0 °F 38% 29.91 in 10.0 mi West 16.1 mph 31.1 mph N/A   Scattered Clouds
2:02 PM 33.1 °F 22.6 °F 10.0 °F 38% 29.88 in 10.0 mi West 16.1 mph 28.8 mph N/A   Scattered Clouds
2:54 PM 33.1 °F 23.0 °F 8.1 °F 35% 29.93 in 10.0 mi NNW 15.0 mph 25.3 mph N/A   Scattered Clouds
3:54 PM 33.1 °F 23.9 °F 7.0 °F 34% 29.95 in 10.0 mi West 12.7 mph 24.2 mph N/A   Partly Cloudy
4:54 PM 33.1 °F 25.5 °F 7.0 °F 34% 29.96 in 10.0 mi NW 9.2 mph 27.6 mph N/A   Scattered Clouds
5:54 PM 30.0 °F 19.1 °F -0.0 °F 28% 30.00 in 10.0 mi NNW 15.0 mph 20.7 mph N/A   Clear
6:54 PM 27.0 °F 18.0 °F -0.9 °F 30% 30.03 in 10.0 mi NNW 9.2 mph 17.3 mph N/A   Clear
7:54 PM 25.0 °F 14.8 °F 1.9 °F 37% 30.06 in 10.0 mi North 10.4 mph - N/A   Clear
8:54 PM 23.0 °F 14.7 °F 3.0 °F 42% 30.09 in 10.0 mi NNW 6.9 mph - N/A   Clear
9:54 PM 21.0 °F 10.6 °F 1.0 °F 42% 30.12 in 10.0 mi NNW 9.2 mph - N/A   Clear
10:54 PM 19.9 °F 13.4 °F 1.0 °F 44% 30.14 in 10.0 mi NNW 4.6 mph - N/A   Clear
11:54 PM 19.0 °F 12.3 °F 1.0 °F 46% 30.16 in 10.0 mi North 4.6 mph - N/A   Clear